Terminal Aerodrome Forecast
Issued by NWS

Home | Current Version | Previous Version | Text Only | Print | Product List | Glossary On
Versions: 1 2 3 4 5 6 7 8 9 10 11 12 13 14 15 16 17 18 19 20 21 22 23 24 25 26 27 28
227
FTUS46 KLOX 271412 AAB
TAFLGB
TAF AMD
KLGB 271412Z 2714/2812 06003KT P6SM FEW040
     FM271700 VRB03KT P6SM SCT040
     FM272100 26015G22KT P6SM SKC
     FM280300 28013KT P6SM SKC
     FM281000 VRB03KT P6SM SKC=

USA.gov is the U.S. government's official web portal to all federal, state and local government web resources and services.